This demonstration page uses our WeatherBlox Daily Observations layout. Learn more.

Left ArrowRight Arrow

47.50024, -111.30081

Hourly Observations for January 30, 2018

Temp ( °F °C ) Dew Point ( °F °C ) Humidity (%) Winds ( mph kmh ) Pressure ( in mb ) Visibility ( mi km ) Precip ( " mm )
1:53 am 01:53 Clear 50 10 23 -5 35 35 SW 20 31 29.62 1003 10 16 0.00 0.00
2:53 am 02:53 Clear 51 10.6 23 -5 33 33 SW 22 35 29.61 1003 10 16 0.00 0.00
3:53 am 03:53 Clear 48 8.9 26 -3.3 42 42 SW 30 48 29.59 1002 10 16 0.00 0.00
4:53 am 04:53 Partly Cloudy 48 8.9 27 -2.8 44 44 SW 32 52 29.58 1002 10 16 0.00 0.00
5:53 am 05:53 Clear 47 8.3 27 -2.8 46 46 WSW 35 56 29.63 1003 10 16 0.00 0.00
6:53 am 06:53 Clear 42 5.6 29 -1.7 60 60 W 22 35 29.70 1006 10 16 0.00 0.00
7:53 am 07:53 Mostly Cloudy 39 3.9 29 -1.7 67 67 WSW 26 43 29.72 1006 10 16 0.00 0.00
8:53 am 08:53 Sunny 38 3.3 30 -1.1 73 73 SW 23 37 29.70 1006 10 16 0.00 0.00
9:53 am 09:53 Sunny 43 6.1 25 -3.9 49 49 SW 26 43 29.71 1006 10 16 0.00 0.00
10:53 am 10:53 Sunny 46 7.8 12 -11.1 25 25 WSW 36 57 29.69 1005 10 16 0.00 0.00
11:53 am 11:53 Sunny 46 7.8 14 -10 27 27 WSW 35 56 29.68 1005 10 16 0.00 0.00
12:53 pm 12:53 Sunny 46 7.8 11 -11.7 24 24 WSW 37 59 29.68 1005 10 16 0.00 0.00
1:53 pm 13:53 Sunny 44 6.7 13 -10.6 28 28 W 30 48 29.73 1007 10 16 0.00 0.00
2:53 pm 14:53 Mostly Sunny 41 5 12 -11.1 30 30 WNW 26 43 29.76 1008 10 16 0.00 0.00
3:53 pm 15:53 Sunny 41 5 11 -11.7 29 29 W 26 43 29.81 1009 10 16 0.00 0.00
4:53 pm 16:53 Mostly Sunny 38 3.3 11 -11.7 33 33 W 23 37 29.85 1011 10 16 0.00 0.00
5:53 pm 17:53 Mostly Clear 32 0 15 -9.4 50 50 SW 14 22 29.89 1012 10 16 0.00 0.00
6:53 pm 18:53 Clear 31 -0.6 15 -9.4 52 52 WSW 17 28 29.92 1013 10 16 0.00 0.00
7:53 pm 19:53 Clear 29 -1.7 14 -10 54 54 SW 15 24 29.94 1014 10 16 0.00 0.00
8:53 pm 20:53 Clear 27 -2.8 14 -10 58 58 WSW 15 24 29.95 1014 10 16 0.00 0.00
9:53 pm 21:53 Clear 26 -3.3 13 -10.6 57 57 WSW 15 24 29.94 1014 10 16 0.00 0.00
10:53 pm 22:53 Clear 28 -2.2 14 -10 56 56 SW 13 20 29.93 1014 10 16 0.00 0.00
11:53 pm 23:53 Clear 30 -1.1 15 -9.4 54 54 SW 18 30 29.91 1013 10 16 0.00 0.00

Powered by AerisWeather